Regional Weather Roundup
Issued by NWS

Home | Current Version | Previous Version | Graphics & Text | Print | Product List | Glossary On
Versions: 1 2 3 4 5 6 7 8 9 10 11 12 13 14 15 16 17 18 19 20 21 22 23 24 25 26 27 28 29 30 31 32 33 34 35 36 37 38 39 40 41 42 43 44 45 46 47 48 49 50
000
ASUS45 KBOI 030010
RWRID
WEATHER ROUNDUP FOR IDAHO
NATIONAL WEATHER SERVICE BOISE ID
600 PM MDT SAT MAY 02 2015

NOTE: "FAIR" INDICATES FEW OR NO CLOUDS BELOW 12000 FEET
WITH NO SIGNIFICANT WEATHER AND/OR OBSTRUCTIONS TO VISIBILITY

IDZ012-014-030100-
SOUTHWEST IDAHO


CITY           SKY/WX    TMP DP  RH WIND       PRES   REMARKS
BOISE          MOSUNNY   78  28  16 N14       29.77F
CALDWELL       MOSUNNY   77  34  20 N15       29.77F
MOUNTAIN HOME  SUNNY     80  29  15 N15G22    29.75F
$$

IDZ016-017-030100-
SOUTHCENTRAL IDAHO


CITY           SKY/WX    TMP DP  RH WIND       PRES   REMARKS
BURLEY         MOSUNNY   76  29  17 W15       29.79F
JEROME         SUNNY     77  22  13 SW15      29.81S
TWIN FALLS     MOSUNNY   77  26  15 W8        29.82F
$$

IDZ019>023-030100-
SOUTHEAST IDAHO


CITY           SKY/WX    TMP DP  RH WIND       PRES   REMARKS
IDAHO FALLS    MOSUNNY   76  20  12 SW25G36   29.78F
POCATELLO      MOSUNNY   78  25  14 W18       29.81S
REXBURG        MOSUNNY   75  20  12 SW25G33   29.77S
$$

IDZ006-010-011-018-031-032-030100-
CENTRAL IDAHO MOUNTAINS


CITY           SKY/WX    TMP DP  RH WIND       PRES   REMARKS
MCCALL         MOSUNNY   63  17  17 W9        29.87F
HAILEY         MOSUNNY   72  30  21 NW12      29.85
STANLEY          N/A     65  21  18 NW13G22   29.93S
SALMON         PTSUNNY   73  27  17 NW21G29   29.73F
CHALLIS        MOSUNNY   72  16  12 W22G31    29.82R
$$

IDZ002-004-006-007-026-030100-
NORTHERN IDAHO


CITY           SKY/WX    TMP DP  RH WIND       PRES   REMARKS
LEWISTON       MOSUNNY   71  24  17 W8        29.89F
LOWELL           N/A     70  39  32 CALM      29.86S
COEUR D`ALENE  SUNNY     64  25  22 W8G16     29.91F
MULLAN PASS    SUNNY     49  16  26 NW8G17    29.94S
$$


USA.gov is the U.S. government's official web portal to all federal, state and local government web resources and services.